Flag for Canada Weather past 2 weeks in Abbotsford, British Columbia, Canada

Now
79 °F

Passing clouds.


Feels Like: 80 °F
Forecast: 59 / 83 °F
Wind: 9 mph from North

Location: Abbotsford

Current Time: Jul 31, 2014 at 1:08:24 PM

Latest Report: Jul 31, 2014 at 12:00 PM


Visibility: 30 mi

Pressure: 30.09 "Hg

Humidity: 54%

Dew point: 61 °F

Location of AbbotsfordLocation

Historic Weather in Abbotsford — Graph

°F

Abbotsford temperature yesterday

Maximum temperature yesterday: 82 °F (at 5:00 PM)
Minimum temperature yesterday: 57 °F (at 6:00 AM)
Average temperature yesterday: 69 °F

Past Weeks' High & Low Weather Summary

 TemperatureHumidityPressure
High84 °F (Jul 16, 4:00 PM)100% (Jul 17, 3:00 AM)30.20 "Hg (Jul 17, 3:00 AM)
Low50 °F (Jul 22, 4:00 AM)41% (Jul 17, 5:00 PM)29.90 "Hg (Jul 16, 9:00 PM)
Average65 °F75%30.05 "Hg
* Reported Jul 16 12:00 Noon — Jul 31 12:00 Noon, Abbotsford, Weather by CustomWeather, © 2014

Note: Actual official high and low records may vary slightly from our data, if they occured in-between our weather recording intervals... More about our weather records

Advertising

Abbotsford weather history for previous 24 hours

 ConditionsComfort  
Time TempWeatherWind HumidityBarometerVisibility
12:00 PM
Jul 31
79 °FPassing clouds.9 mph54%30.09 "Hg30 mi
11:00 AM75 °FPassing clouds.2 mph54%30.10 "Hg30 mi
10:00 AM73 °FPassing clouds.3 mph61%30.11 "Hg30 mi
9:00 AM68 °FPassing clouds.2 mph64%30.12 "Hg30 mi
8:00 AM64 °FPassing clouds.No wind73%30.14 "Hg30 mi
7:00 AM61 °FPassing clouds.2 mph77%30.14 "Hg30 mi
6:00 AM55 °FPassing clouds.No wind88%30.13 "Hg30 mi
5:00 AM57 °FPassing clouds.2 mph82%30.12 "Hg30 mi
4:00 AM57 °FClear.2 mph82%30.11 "Hg15 mi
3:00 AM59 °FClear.3 mph82%30.10 "Hg15 mi
2:00 AM61 °FClear.3 mph83%30.10 "Hg15 mi
1:00 AM61 °FClear.5 mph88%30.10 "Hg15 mi
12:00 AM64 °FClear.2 mph83%30.10 "Hg15 mi
11:00 PM
Jul 30
64 °FClear.3 mph83%30.09 "Hg15 mi
10:00 PM64 °FClear.5 mph88%30.09 "Hg15 mi
9:00 PM72 °FPassing clouds.6 mph65%30.07 "Hg30 mi
8:00 PM75 °FPassing clouds.8 mph57%30.07 "Hg30 mi
7:00 PM79 °FPassing clouds.9 mph51%30.08 "Hg30 mi
6:00 PM81 °FPassing clouds.9 mph51%30.08 "Hg30 mi
5:00 PM82 °FPassing clouds.8 mph48%30.09 "Hg30 mi
4:00 PM81 °FPassing clouds.10 mph48%30.11 "Hg30 mi
3:00 PM81 °FPassing clouds.9 mph51%30.12 "Hg30 mi
2:00 PM81 °FPassing clouds.8 mph51%30.13 "Hg30 mi
1:00 PM77 °FSunny.6 mph57%30.13 "Hg30 mi
Weather by CustomWeather, © 2014

See weather overviewHow to use our weather pages